ノヴィチョーノク-ギェルケ彗星

408P/Novichonok-Gerke (2022)

English version
Home page
Updated on September 18, 2021

---------------------------------------------------------------------

・ プロフィール

符号 408P/2020 M7
検出日 2020年6月20日
検出光度 21.9等
検出者 Pan-STARRS 1 telescope (Haleakala)

・ 写真集

・ 軌道要素

Epoch 2022 Sept. 18.0 TT = JDT 2459840.5
T 2022 Oct. 5.03739 TT                                  Rudenko
q   3.4675219            (2000.0)            P               Q
n   0.09538044     Peri.  226.45435     +0.56742516     -0.82162805
a   4.7442020      Node   189.44114     +0.81817118     +0.57002130
e   0.2691032      Incl.   19.35689     +0.09286873     -0.00175054
P  10.3
From 472 observations 2011 Sept. 7-2021 July 14, mean residual 0".8.

・ 光度変化

        m1 = 10.0 + 5 logΔ + 10.0 log r

---------------------------------------------------------------------

軌道要素はM.P.E.C. 2021-O56に掲載されたものです。
光度グラフはComet for Windowsで作成したものです。

---------------------------------------------------------------------

Copyright(C) Seiichi Yoshida (comet@aerith.net). All rights reserved.